Theta_e
331 332 333 332 332 331 331 332 332 331 331 330 329 328 328 326 324 324 321 314 309 308 307 305 304 302 301 300 300 300 299 299 298 298 298 298 298 298 298 298 298 298 298 298 297 297 297 297 297 296 296 296 296 296 296 296 296 296 296 296 295 295 295 295 295 296 296 296 296 296 297 298 299 299 300 301 302 303 303 302 301 301 301 301 301
331 331 332 331 332 332 332 332 332 331 330 329 328 327 327 325 323 323 319 312 308 307 305 304 302 301 300 299 299 299 298 298 298 298 298 298 298 298 298 298 298 298 298 297 297 297 297 297 296 296 296 296 296 296 296 296 295 296 295 295 295 295 295 295 295 295 295 295 296 296 297 298 299 299 300 301 301 302 302 303 302 301 301 301 301
330 330 330 330 331 332 332 331 330 329 329 328 328 326 325 324 323 321 317 310 308 306 303 302 301 300 299 299 299 298 298 298 298 298 298 298 298 298 298 298 298 298 297 297 297 296 296 296 296 296 296 296 296 296 296 295 295 295 295 295 295 295 295 295 295 295 295 295 295 296 297 298 298 299 300 300 301 301 302 302 302 301 301 301 300
330 330 329 329 330 331 331 330 329 329 328 327 326 325 324 322 321 319 314 309 307 304 301 301 300 299 299 298 298 298 298 298 298 298 298 298 298 298 298 297 297 297 297 297 296 296 296 296 296 296 295 296 295 295 295 295 295 295 295 295 295 295 295 295 295 295 295 295 295 296 297 298 298 299 300 300 301 302 301 301 301 301 301 301 300
329 329 329 329 329 330 330 329 329 328 327 326 325 323 322 321 320 316 311 308 305 302 300 300 299 298 298 298 298 298 298 298 298 298 298 298 298 298 297 297 297 297 296 296 296 296 296 296 295 295 295 295 295 295 295 295 295 295 295 295 295 294 294 294 295 295 295 295 295 296 297 298 298 299 299 300 301 301 301 301 301 301 301 301 301
328 328 329 330 330 329 329 328 327 327 325 324 323 321 320 319 318 313 309 307 303 300 299 299 298 298 298 298 298 298 297 298 298 298 298 298 298 297 297 297 297 296 296 296 296 296 295 295 295 295 295 295 295 295 295 295 295 294 294 294 294 294 294 294 294 295 295 295 295 296 296 297 298 299 299 299 300 300 300 301 301 301 300 301 301
328 329 330 330 329 329 328 327 326 325 324 323 322 320 318 317 314 310 307 304 301 299 298 298 298 298 298 298 298 297 297 298 298 298 298 297 297 297 297 297 296 296 296 296 296 295 295 295 295 295 295 295 295 295 295 294 294 294 294 294 294 294 294 294 294 294 295 295 295 296 296 297 298 298 299 299 299 299 299 300 301 300 300 300 300
328 329 330 329 329 328 327 326 324 323 322 321 320 318 317 315 311 308 306 302 299 298 298 297 298 298 298 298 297 297 298 298 297 297 297 297 297 297 296 296 296 296 295 295 295 295 295 295 295 295 295 295 294 294 294 294 294 294 294 294 294 294 294 294 294 294 295 295 295 295 296 297 297 298 298 299 299 299 299 298 298 298 298 299 300
328 329 329 328 328 326 325 324 323 321 320 319 317 316 315 312 309 307 303 300 298 298 298 298 298 298 298 298 297 297 297 297 297 297 297 297 297 296 296 296 296 296 295 295 295 295 295 295 295 295 294 294 294 294 294 294 294 293 293 294 294 294 294 294 294 294 294 295 295 295 295 296 297 298 298 298 298 298 299 298 297 297 298 299 300
328 329 328 327 326 324 323 322 320 319 318 316 315 314 312 310 307 303 300 298 297 297 297 298 298 298 298 297 297 297 297 297 297 297 297 296 296 296 296 296 295 295 295 295 295 295 295 294 294 294 294 294 294 294 294 293 293 293 293 293 294 294 294 294 294 294 294 294 294 295 295 295 296 297 297 297 298 298 299 298 297 297 297 297 299
328 328 327 326 324 322 321 320 318 317 317 316 314 312 310 308 304 300 298 297 296 297 297 298 298 298 298 297 297 297 297 297 297 297 296 296 296 296 296 295 295 295 295 295 295 294 294 294 294 294 294 294 293 293 293 293 293 293 293 293 294 294 294 294 294 294 294 294 294 294 294 295 296 297 297 297 298 298 299 298 297 297 297 296 297
328 326 325 323 321 320 319 318 317 316 316 314 312 310 308 305 301 298 297 296 296 296 297 298 298 298 298 297 297 297 297 297 296 296 296 296 296 295 295 295 295 295 295 295 295 294 294 294 294 294 294 293 293 293 293 293 293 293 293 293 293 293 293 294 294 294 294 294 294 293 294 294 295 296 297 297 297 298 299 299 298 297 297 296 296
326 324 323 321 319 318 317 316 316 315 314 313 310 308 306 303 299 297 296 296 296 296 297 298 298 298 297 297 297 296 296 296 296 296 296 296 295 295 295 295 295 295 295 294 294 294 294 294 294 294 293 293 293 293 293 293 293 293 293 293 293 293 293 293 294 294 294 294 294 293 293 294 295 296 296 296 297 298 298 299 299 298 297 297 297
324 322 320 319 318 317 316 315 315 314 313 311 309 307 305 302 298 296 296 296 296 296 297 298 298 298 298 297 297 296 296 296 296 296 295 295 295 295 295 295 295 294 294 294 294 294 294 294 294 293 293 293 293 293 293 293 293 293 293 293 292 292 292 292 293 293 294 294 294 293 293 293 294 295 296 296 297 298 298 298 299 299 298 298 298
323 320 319 318 317 316 315 315 314 313 311 310 308 307 305 300 297 295 296 296 296 296 297 298 298 299 298 297 297 297 296 296 295 295 295 295 295 295 295 294 294 294 294 294 294 294 294 294 293 293 293 293 293 293 293 293 293 293 293 293 293 292 292 292 292 293 293 294 294 293 293 293 293 294 295 296 297 297 298 298 299 299 299 299 299
322 319 317 317 316 315 315 314 312 311 310 309 308 306 303 299 296 295 295 295 296 296 297 298 298 299 299 298 297 297 296 295 295 295 295 295 295 294 294 294 294 294 294 294 294 294 294 294 293 293 293 293 293 293 293 293 293 293 293 294 294 293 293 292 292 292 293 293 294 294 294 293 293 294 295 296 296 297 297 298 298 298 298 298 299
321 318 317 316 315 314 314 313 311 311 309 308 307 305 303 300 297 295 295 295 296 296 297 298 298 298 298 298 297 297 296 295 295 295 295 294 294 294 294 294 294 294 294 294 294 294 294 294 294 293 293 293 293 293 293 293 293 294 294 294 294 295 294 294 293 292 292 292 293 293 293 293 293 293 294 295 296 296 297 297 297 297 297 297 298
320 317 316 315 314 314 313 312 311 311 309 308 307 304 303 300 297 295 295 295 295 296 297 298 299 298 298 297 298 298 297 296 295 295 295 294 294 294 294 294 294 294 294 294 294 294 294 294 293 293 293 293 293 293 293 293 294 294 295 294 294 295 295 295 294 294 293 292 292 292 293 293 293 293 293 294 295 296 296 296 296 297 297 297 296
319 317 316 316 315 314 313 312 311 310 308 307 306 303 302 301 297 294 295 295 295 296 297 298 298 298 298 298 298 298 296 295 295 295 295 294 294 294 294 294 294 294 294 294 294 294 294 294 293 293 293 293 293 293 293 293 294 294 295 295 295 295 294 294 293 293 293 293 292 292 292 293 293 293 293 293 294 295 296 296 296 296 297 297 297
319 317 317 316 314 313 312 312 311 309 307 306 305 303 303 302 298 294 294 295 296 297 298 298 298 298 298 299 298 297 296 295 295 295 295 294 294 294 294 294 294 294 294 294 294 294 294 293 293 293 293 293 293 293 293 293 294 294 295 295 295 295 294 294 293 293 293 293 293 292 292 292 293 293 293 293 293 294 295 295 296 296 296 297 297
317 316 316 315 313 312 312 311 310 308 307 306 305 304 303 302 299 296 294 295 296 296 298 298 298 298 299 299 298 297 296 296 295 295 295 294 294 294 294 294 294 294 294 294 294 294 293 293 293 293 293 293 293 293 293 293 293 294 295 295 295 294 295 294 294 294 294 294 293 293 293 292 292 292 293 293 293 293 294 295 295 295 295 296 297
317 316 315 314 312 311 311 311 309 308 306 305 305 304 301 300 300 297 294 294 296 296 297 298 298 298 298 298 297 297 296 296 295 295 295 294 294 294 294 293 293 293 293 293 293 293 293 293 293 293 293 293 293 293 293 293 293 294 295 295 295 295 295 295 295 295 295 295 294 294 293 292 291 292 292 293 293 293 293 294 294 295 295 295 296
317 316 314 313 312 311 310 310 308 307 307 305 304 303 300 298 299 298 294 294 295 296 297 298 298 298 298 297 297 296 295 295 295 295 294 294 294 294 293 293 293 293 293 293 293 293 293 293 293 293 293 293 293 293 293 293 294 294 295 295 295 295 295 295 295 296 296 296 295 295 293 292 291 291 291 292 293 293 293 293 293 294 294 295 295
316 315 314 312 311 311 310 309 308 307 307 305 303 301 299 299 300 298 294 294 295 296 297 297 297 297 297 296 296 295 295 295 294 294 294 294 294 293 293 293 293 293 293 293 293 293 293 293 293 293 293 293 293 293 293 294 294 295 295 295 295 295 295 295 295 295 295 296 296 295 294 292 291 291 290 291 292 293 293 293 293 293 294 294 295
316 315 313 312 311 310 310 309 307 307 306 304 301 301 300 300 300 297 294 294 295 295 296 296 296 296 295 295 295 295 294 294 294 294 294 294 293 293 293 293 293 293 293 293 293 293 293 293 293 293 293 293 293 293 293 294 294 295 295 295 295 295 295 295 295 295 295 295 295 295 295 294 292 291 291 291 292 292 293 293 293 293 293 293 294
316 315 313 312 311 310 309 308 307 306 305 302 301 301 301 299 298 297 295 294 294 295 295 295 295 295 295 294 294 294 294 294 294 294 294 294 293 293 293 293 293 294 293 293 293 293 293 293 293 293 293 293 293 293 293 294 294 295 295 295 295 295 295 295 294 294 294 295 295 295 295 295 294 293 293 292 291 292 292 293 293 293 293 293 293
316 314 313 312 311 310 309 307 306 305 304 301 301 302 302 299 297 296 295 294 294 294 294 294 294 294 294 294 294 294 294 294 294 294 294 294 293 293 293 293 293 294 294 293 293 293 293 293 293 293 293 293 293 293 294 294 294 295 295 295 295 295 294 294 294 293 293 294 294 294 295 295 295 295 295 294 292 291 291 292 293 293 293 293 293
316 314 313 312 311 310 309 307 306 304 302 301 301 302 301 298 296 295 295 294 294 294 294 294 294 294 294 294 294 294 294 294 294 293 293 293 293 293 293 293 293 294 294 293 293 293 293 293 293 293 293 293 293 293 293 294 294 295 295 295 294 294 294 293 293 293 293 293 293 293 294 294 295 295 295 295 294 293 291 291 292 293 293 293 293
315 314 313 312 311 310 308 307 305 303 301 301 302 302 300 297 295 295 295 294 294 294 294 294 294 294 294 294 293 293 293 293 293 293 293 293 293 293 293 293 294 293 293 293 293 293 293 293 293 293 293 293 293 293 294 294 294 295 295 294 294 293 293 293 293 292 292 292 292 292 292 293 293 294 295 295 295 294 293 292 291 292 293 293 293
315 313 313 312 311 309 307 306 304 303 302 303 303 302 299 297 296 295 294 294 294 294 294 294 294 293 293 293 293 293 293 293 293 293 293 293 293 293 293 293 293 293 293 293 293 293 293 293 293 293 293 293 293 294 294 294 295 294 294 294 293 293 293 292 292 292 292 292 292 292 292 292 292 292 293 294 294 295 295 294 292 291 291 292 293
314 313 312 311 310 309 306 305 304 303 303 303 302 301 299 297 295 295 294 294 294 293 294 295 295 295 294 294 294 294 293 293 293 293 293 293 293 293 293 293 293 293 293 293 293 294 294 294 294 294 294 293 293 294 294 294 294 294 294 293 293 293 292 292 292 292 292 292 292 292 292 291 291 291 291 292 293 293 294 295 295 294 292 291 291
315 313 312 311 309 307 305 304 304 304 304 304 303 301 299 296 294 294 294 294 294 294 295 296 297 297 296 296 295 295 294 293 293 293 293 293 293 293 293 293 293 293 293 293 294 294 294 294 294 294 294 294 294 293 294 294 294 293 293 293 292 292 292 293 293 293 292 292 292 292 292 291 291 291 291 291 291 291 292 293 294 294 294 293 291
314 313 312 310 308 306 305 305 305 304 304 304 303 301 299 296 294 294 294 294 295 295 297 298 299 299 298 298 297 296 295 294 293 293 293 293 293 293 293 293 293 293 293 293 294 294 294 294 294 294 294 294 294 293 293 293 293 293 293 292 292 293 294 295 294 294 293 293 292 292 292 292 292 292 291 291 291 291 291 291 292 292 293 294 293
313 312 311 310 308 306 305 305 305 305 305 304 303 301 299 296 296 296 295 295 296 297 298 299 299 299 299 299 298 298 297 295 294 293 293 293 293 293 293 293 293 293 293 293 294 294 295 295 295 294 294 294 294 293 293 293 294 294 293 292 293 295 296 296 296 295 295 294 294 294 294 294 294 294 293 293 292 291 291 290 291 291 291 292 293
312 311 311 309 308 306 306 305 305 305 305 304 303 301 299 297 297 298 296 295 296 297 299 300 300 300 299 299 299 298 297 296 294 293 293 293 293 293 293 293 293 293 293 293 294 294 295 295 295 295 294 294 294 294 294 294 295 294 293 293 295 296 296 296 296 297 296 296 296 296 296 296 296 296 295 294 294 293 292 291 290 290 290 291 291
311 311 310 308 307 306 306 306 305 305 304 304 303 301 299 298 299 299 298 297 298 299 299 300 300 300 299 299 298 297 296 295 294 293 293 293 293 293 293 293 293 293 293 293 294 294 295 295 295 295 294 295 295 295 295 295 296 295 294 294 296 297 297 297 297 297 297 297 296 296 296 296 296 296 296 296 295 294 293 293 292 291 290 290 290
311 310 309 307 306 305 305 305 305 305 304 304 303 301 300 299 299 300 299 299 299 300 300 300 300 299 298 298 297 296 295 294 293 293 293 293 293 293 293 293 293 293 293 293 294 294 295 295 295 295 295 295 295 295 296 296 296 296 295 295 296 296 296 297 297 297 297 297 297 296 296 296 296 296 296 296 296 296 295 294 294 293 292 291 290
311 310 308 307 306 305 305 304 304 304 304 304 303 302 300 300 300 300 299 299 300 300 300 300 299 299 298 297 296 295 293 293 293 293 293 293 293 293 293 293 293 293 293 293 294 295 295 295 295 295 295 296 296 296 296 297 297 296 296 296 296 296 296 297 297 297 297 297 297 297 297 296 296 296 296 296 296 296 296 296 295 295 294 293 292
310 308 307 306 305 305 304 304 304 304 304 303 303 302 300 300 300 300 300 300 300 300 300 300 299 298 298 298 297 295 293 292 293 293 293 293 293 292 292 292 293 293 293 294 295 296 296 296 296 296 296 296 296 296 297 297 297 297 297 297 297 297 296 297 297 296 296 296 296 296 296 296 296 296 296 296 297 297 297 297 296 296 295 295 294
308 307 305 305 305 304 304 304 304 303 304 303 302 301 300 299 299 300 300 300 300 299 300 300 299 299 299 298 296 294 293 293 293 293 292 292 292 293 293 293 294 294 294 295 296 297 297 297 297 296 296 296 296 297 297 297 297 297 297 296 296 296 296 296 296 296 296 296 296 296 296 296 296 296 296 296 296 296 297 297 297 297 296 296 296
307 306 304 304 304 303 303 303 303 303 303 303 301 300 299 299 299 300 300 300 299 299 300 300 299 299 298 297 294 292 292 292 293 293 293 294 295 296 296 296 296 296 296 295 296 296 297 297 297 296 296 296 297 297 297 297 297 297 297 297 297 297 297 297 297 296 296 296 296 296 296 296 296 296 295 295 296 296 296 296 297 297 297 297 296
306 305 304 303 303 303 302 302 302 302 302 301 300 299 298 299 299 300 300 299 299 300 300 300 299 298 296 294 292 293 293 294 295 295 296 297 298 298 298 297 297 297 297 296 296 296 296 296 296 296 297 297 297 297 297 297 297 297 297 297 297 297 297 297 297 297 297 297 297 297 297 297 297 296 296 296 296 296 296 297 297 297 297 297 297
305 304 303 303 302 302 300 300 300 300 300 300 299 298 299 299 300 300 300 300 300 301 300 299 297 295 293 293 294 296 297 297 298 298 298 299 299 299 299 298 298 297 297 297 297 296 296 296 296 296 297 297 297 297 297 297 297 297 297 297 297 297 297 298 298 298 298 297 297 297 297 297 297 297 297 297 297 297 297 297 297 297 297 297 297
305 304 303 302 301 300 300 300 299 299 299 298 298 298 299 300 300 300 300 300 301 300 298 295 294 295 295 297 298 298 299 299 299 299 299 299 299 299 299 299 298 297 297 297 297 296 296 296 296 297 297 297 297 297 298 297 298 298 297 297 297 297 298 298 298 298 298 298 298 298 298 297 297 297 297 297 297 297 297 297 297 297 297 297 297
304 302 301 301 301 301 301 300 300 299 298 298 299 299 299 300 300 300 301 301 300 298 295 294 295 298 299 299 299 299 299 299 299 299 299 299 299 299 299 299 298 297 297 297 297 297 297 297 297 297 297 298 298 298 298 298 298 298 298 298 298 298 298 299 298 298 298 298 298 298 298 298 298 298 298 298 298 297 297 297 297 297 297 297 297
302 301 301 300 300 300 300 299 299 298 298 298 299 300 300 300 301 301 300 299 298 297 296 297 298 299 300 300 300 300 299 299 299 299 299 299 299 299 299 298 298 297 297 297 297 297 297 297 297 297 298 298 298 298 298 298 298 298 298 298 298 298 299 299 299 299 298 298 298 298 298 298 298 298 298 298 298 298 298 298 297 297 297 297 297
300 300 300 300 299 299 299 299 299 298 298 299 300 300 301 301 301 299 298 297 297 299 299 299 300 300 300 300 300 300 300 300 300 299 299 299 299 298 298 298 298 297 297 297 297 297 297 297 297 298 298 298 298 298 298 298 298 298 298 298 298 299 299 299 299 299 299 298 298 298 298 298 298 298 298 298 298 298 298 298 298 298 298 298 297
301 300 300 299 299 299 299 299 299 300 300 301 301 301 300 300 299 297 297 298 300 301 301 300 300 300 300 300 300 300 300 300 300 300 299 299 299 298 298 298 298 298 298 298 298 298 298 298 298 298 298 298 298 298 299 299 298 298 298 298 298 299 299 299 299 299 299 299 299 298 298 298 298 298 298 298 298 298 298 298 298 298 298 298 298
300 300 299 299 298 298 299 299 300 300 300 300 300 299 298 298 298 299 300 301 301 301 301 300 300 300 300 300 300 300 299 299 300 300 299 299 299 299 299 298 298 298 298 298 298 298 298 298 298 298 298 298 299 299 299 299 299 298 298 298 299 299 299 299 299 299 299 299 299 298 298 298 298 298 298 298 298 298 298 298 298 298 298 298 298
299 299 298 298 299 299 299 299 299 299 299 300 300 300 300 300 301 301 301 301 301 301 301 300 300 300 300 301 300 300 300 300 300 300 300 299 299 299 299 299 299 299 299 299 299 299 299 299 299 299 299 299 299 299 299 299 299 298 298 298 299 299 299 299 299 299 299 299 298 298 298 298 298 298 298 298 297 297 297 297 298 298 298 298 298
299 299 299 299 299 299 300 300 300 300 300 301 301 301 301 301 301 301 301 301 301 301 301 301 301 301 301 301 300 300 300 300 300 299 299 299 299 299 299 299 299 299 299 299 299 299 299 299 299 299 299 299 299 299 299 299 299 298 298 298 298 299 299 299 299 298 298 298 298 298 298 298 298 298 297 297 297 297 297 297 298 297 297 297 297
Wind_Speed
14 14 13 13 13 13 14 17 19 17 14 12 11 10 8 9 9 9 7 7 8 6 5 5 4 3 2 2 1 3 4 6 9 9 9 9 11 12 12 11 12 14 14 15 17 18 19 21 23 24 25 25 26 26 27 28 28 28 29 29 30 31 32 32 35 39 40 41 42 44 45 46 47 48 50 51 50 48 47 47 46 44 42 40 36
16 15 14 13 14 15 16 19 18 15 14 14 12 10 9 10 10 9 7 8 8 6 6 5 4 3 2 2 2 4 6 8 10 9 9 9 11 13 12 11 12 13 14 16 18 19 20 22 23 24 24 24 25 26 26 27 28 28 29 30 30 30 31 32 34 38 42 43 44 45 46 47 48 49 50 51 51 50 49 49 48 47 45 43 40
16 16 16 14 15 17 17 17 16 15 15 14 12 11 10 11 10 8 8 9 9 7 7 6 5 4 3 3 4 5 7 10 11 10 9 10 11 12 12 11 12 13 15 17 19 19 20 22 23 23 23 24 25 26 26 27 28 28 29 30 30 31 31 32 34 36 40 43 45 46 48 48 49 50 50 51 50 50 50 50 50 49 47 46 44
16 17 17 16 16 17 18 17 17 17 16 14 13 12 12 12 9 8 9 10 9 8 7 6 5 4 3 3 5 7 9 11 12 11 11 11 11 11 11 11 12 14 16 17 18 19 20 22 23 23 23 24 24 25 26 26 27 28 29 29 30 31 31 32 33 35 38 42 44 45 47 48 49 50 51 52 51 50 51 51 51 52 51 48 45
17 17 17 17 18 19 19 19 18 17 15 14 14 14 13 11 10 10 11 10 9 8 8 6 5 4 4 4 6 9 11 12 12 12 12 11 10 10 10 11 13 15 16 17 18 19 20 21 22 23 23 24 24 25 26 26 27 27 28 29 30 30 31 32 33 34 37 41 44 46 46 47 49 50 51 53 53 52 52 52 51 53 55 52 47
16 17 20 21 21 21 20 18 17 16 16 15 15 14 13 11 11 12 11 10 9 9 8 7 6 5 5 5 7 10 12 13 12 12 12 11 10 10 10 12 13 14 15 17 18 19 20 21 22 23 23 24 24 25 25 25 26 27 28 29 30 30 32 33 34 35 37 40 43 46 47 48 50 51 51 52 52 53 54 55 53 53 55 55 50
16 19 22 22 20 19 18 18 18 17 17 16 15 14 13 12 12 13 12 10 9 9 9 8 7 7 6 7 9 11 13 14 13 12 11 10 9 10 11 12 13 14 15 17 18 19 20 20 21 22 23 24 24 24 25 25 25 27 27 28 29 30 32 33 34 36 38 40 42 45 47 47 48 50 51 52 52 53 53 54 56 54 54 55 51
19 22 23 21 20 20 19 19 18 17 17 16 15 14 13 14 14 13 12 10 10 10 9 9 9 9 8 9 11 13 13 13 13 11 10 10 9 10 11 12 13 15 16 17 18 18 19 19 20 21 22 22 22 23 24 25 25 26 26 27 28 30 32 33 34 36 38 40 42 44 46 47 48 50 52 54 54 54 52 50 51 50 50 53 51
22 23 23 22 21 21 20 19 18 17 17 16 15 15 15 15 15 13 12 12 12 11 11 10 10 10 11 12 13 13 13 13 12 10 9 9 10 10 12 12 13 15 16 16 17 17 18 18 19 19 19 19 19 21 22 23 25 25 26 27 28 30 31 32 33 35 37 39 41 43 46 46 48 50 52 53 52 52 52 49 47 47 48 51 52
24 24 24 22 21 21 20 19 18 17 16 15 15 16 16 16 15 14 13 13 13 13 13 12 11 11 12 14 14 14 13 13 12 11 9 9 10 10 11 12 13 14 15 15 16 17 17 18 18 18 17 18 18 19 21 22 23 24 24 25 26 29 30 31 32 33 35 38 39 42 44 45 46 47 48 49 49 50 51 49 47 47 48 53 54
25 25 23 22 21 20 19 19 18 17 16 15 15 16 16 15 14 14 14 14 14 14 14 14 13 13 13 14 15 14 14 12 12 11 10 10 10 10 11 12 13 13 13 14 15 16 17 17 17 17 17 18 18 19 20 21 22 23 23 23 24 26 28 30 31 31 33 36 38 39 42 43 43 44 45 47 49 50 50 48 46 45 46 52 53
25 24 22 20 20 19 19 19 18 16 15 15 16 16 15 14 14 14 15 15 15 16 16 15 15 15 15 16 15 14 13 12 12 11 10 10 10 10 10 11 11 12 13 14 15 16 16 17 17 17 17 18 18 19 20 21 22 23 23 23 24 25 26 27 28 29 31 34 36 38 39 41 41 42 43 45 47 48 49 48 46 44 44 47 47
25 23 21 20 19 20 20 19 17 16 16 16 16 16 14 13 14 15 15 16 16 17 17 16 16 17 17 17 16 15 13 12 12 11 10 10 9 9 10 10 10 11 12 13 14 15 16 16 16 16 17 17 18 19 20 21 22 23 23 24 25 25 26 26 26 26 28 31 34 36 37 39 39 40 40 42 45 47 47 47 47 45 46 47 46
24 22 21 20 20 20 20 18 18 17 17 17 17 15 14 13 14 15 15 16 17 17 18 18 17 18 18 18 17 15 13 12 12 11 10 10 9 9 9 9 10 10 11 12 13 14 15 16 15 16 16 17 17 18 19 20 21 22 22 24 25 26 27 27 27 26 26 27 31 34 35 37 37 37 38 39 41 44 44 45 46 46 48 49 48
23 22 22 22 22 21 20 19 19 19 19 18 17 15 14 14 15 16 16 16 17 17 18 18 18 19 19 19 18 16 14 13 12 11 11 10 9 9 8 8 9 9 10 11 13 14 14 15 14 15 15 16 17 18 19 20 20 21 21 23 25 26 27 28 28 28 26 25 27 30 33 35 36 36 37 38 39 41 41 42 43 45 47 50 49
24 24 24 23 22 21 20 20 21 20 20 19 16 15 14 15 15 16 17 17 17 17 18 18 19 19 19 19 18 17 15 13 12 12 11 10 9 8 7 7 8 9 9 10 12 13 13 13 13 13 14 15 16 17 18 19 19 20 21 22 23 24 25 27 27 27 26 25 25 27 30 33 36 36 36 36 38 40 41 43 43 45 47 50 51
26 26 25 24 23 21 20 21 21 22 21 19 16 15 14 14 15 17 17 18 18 18 19 19 19 19 19 19 18 17 15 14 13 12 11 9 8 7 6 6 7 7 8 10 11 11 11 11 12 12 13 14 15 17 17 18 19 19 21 22 22 23 25 25 26 27 27 26 25 26 29 31 35 36 37 37 37 40 43 45 46 46 46 46 49
27 28 26 22 19 19 21 21 21 22 21 18 17 16 15 13 14 17 17 17 18 19 19 19 19 19 20 19 17 16 15 15 14 12 10 9 8 6 5 5 6 6 7 9 9 9 10 10 11 11 12 14 15 16 17 17 18 20 21 22 23 24 25 26 26 27 27 27 27 28 29 32 34 37 38 38 38 39 42 43 44 45 45 42 44
28 27 23 18 17 20 22 23 22 22 21 19 18 17 15 13 14 17 17 17 18 19 19 20 21 21 20 18 16 15 15 15 14 12 10 9 7 6 5 4 4 5 7 7 7 8 8 9 10 11 12 13 14 15 16 17 18 20 21 22 23 24 25 26 27 28 29 29 30 30 31 33 34 36 38 39 39 38 39 40 41 43 44 42 43
27 24 21 19 21 23 24 24 25 23 21 20 18 15 12 12 14 16 18 18 19 20 20 20 21 22 20 17 16 15 14 14 13 12 10 9 7 5 4 3 3 5 6 6 5 6 7 8 9 10 11 12 13 14 15 16 18 19 20 21 23 24 24 25 26 27 28 30 31 31 32 33 34 36 38 39 40 40 39 38 39 40 41 42 43
25 24 22 22 23 24 25 25 25 23 20 20 19 16 13 12 13 16 18 19 20 21 21 22 22 21 19 17 16 15 13 12 12 11 10 9 7 5 4 3 3 4 4 4 4 5 5 7 8 9 10 11 12 14 15 15 17 18 19 21 22 23 23 24 25 26 27 28 30 31 32 34 35 36 38 38 39 40 40 39 38 39 40 40 41
25 24 24 24 24 25 26 26 24 23 21 22 21 19 18 17 15 17 19 20 21 22 23 23 22 21 19 17 16 14 13 12 11 10 10 9 7 6 5 3 2 3 3 2 2 3 4 6 7 8 9 11 12 13 14 14 15 17 18 20 20 21 22 23 24 26 27 28 30 31 33 35 35 36 37 38 38 38 39 39 39 38 39 39 39
25 24 25 25 24 25 26 26 25 24 23 22 20 19 19 19 18 19 20 20 21 23 24 24 23 21 19 18 16 15 14 13 12 11 10 8 7 7 6 5 3 2 1 0 1 3 4 5 6 7 8 10 11 12 13 13 14 16 17 18 18 19 21 22 24 26 27 29 30 32 33 34 36 36 36 37 37 38 38 39 39 39 39 39 39
25 24 25 26 24 25 26 26 25 25 23 21 20 19 19 18 18 20 21 21 22 23 24 24 23 21 20 19 17 16 15 13 13 12 10 10 9 8 7 6 4 3 2 2 1 2 3 4 5 6 8 9 10 11 12 12 13 14 16 16 17 19 21 23 24 26 27 29 30 31 32 33 34 35 35 35 36 37 37 37 38 38 38 39 40
24 24 26 26 24 25 26 26 25 25 24 22 21 21 20 19 19 21 22 21 22 23 23 23 22 21 20 19 17 17 15 14 14 13 12 11 11 9 8 6 5 4 3 3 2 2 3 4 5 6 7 8 9 10 11 12 13 14 15 16 17 19 21 23 24 25 27 28 29 30 31 31 32 33 33 33 33 35 36 37 38 38 38 38 39
25 26 27 26 25 25 26 27 26 25 24 22 21 20 19 19 20 22 23 23 22 22 22 21 21 20 19 18 17 16 15 15 14 13 13 12 11 10 9 7 6 5 5 3 3 3 3 3 4 6 7 8 9 9 10 12 13 13 14 15 17 20 22 23 24 25 26 27 28 28 29 30 30 30 31 32 33 34 35 37 38 39 39 39 40
26 27 27 26 26 26 27 28 27 26 25 23 22 21 19 19 21 24 25 25 24 23 22 21 20 20 19 18 17 16 15 15 14 14 13 12 12 11 9 8 7 6 5 4 3 3 3 3 4 5 6 7 9 10 11 11 12 13 14 16 18 20 21 23 24 25 25 26 26 26 27 27 28 29 30 31 32 33 34 34 36 38 39 40 41
26 26 26 26 26 26 27 27 27 27 26 24 23 22 21 21 22 25 25 24 23 23 22 21 20 19 18 18 17 16 15 14 14 13 13 12 12 11 10 8 7 7 6 4 4 3 3 3 4 5 6 7 8 9 10 11 12 13 14 16 18 19 21 22 23 24 25 25 25 25 26 26 27 28 30 31 32 33 33 33 33 34 36 38 40
26 26 26 26 26 26 27 27 27 26 25 23 22 22 21 20 22 23 23 22 20 19 18 18 17 17 17 16 15 14 13 13 13 13 13 13 12 11 10 8 8 8 6 5 4 4 4 4 4 5 5 6 7 8 9 10 11 13 14 16 18 20 21 23 23 24 25 25 25 25 26 26 27 28 29 30 31 32 32 33 33 33 33 35 36
27 27 27 26 26 27 28 28 27 26 25 24 23 23 22 20 21 21 21 20 19 17 14 13 13 14 15 14 14 13 13 13 13 13 12 12 12 11 10 9 9 8 7 6 5 5 5 5 5 6 6 7 7 8 9 10 11 13 14 16 18 20 22 23 24 25 25 25 25 26 26 27 28 28 29 29 30 31 31 32 33 33 33 33 33
28 29 28 27 26 27 28 28 28 26 25 24 24 25 24 23 22 22 21 20 19 18 15 13 13 13 13 13 13 13 12 12 12 12 11 11 11 11 10 9 9 9 7 7 7 7 7 7 7 7 7 8 8 9 10 11 12 13 15 17 19 20 22 23 24 24 25 25 25 26 26 27 28 29 29 29 29 30 30 31 32 32 33 33 32
27 28 27 26 26 27 29 28 28 27 26 25 25 25 24 25 25 25 24 22 20 19 17 16 15 14 13 12 11 11 11 11 11 11 11 11 10 10 10 10 10 9 8 8 8 8 8 8 7 7 8 8 9 10 10 11 13 14 15 17 18 19 20 21 22 23 24 25 25 25 26 27 27 28 28 29 29 30 30 30 31 32 32 32 32
26 26 25 25 26 28 29 28 28 28 27 27 27 26 26 26 27 27 26 25 23 21 19 18 17 16 14 12 11 10 10 10 10 11 11 11 11 11 11 11 11 10 10 9 9 9 9 8 8 8 8 8 8 9 11 12 13 14 15 16 16 17 18 19 20 21 22 23 24 24 25 26 27 27 28 28 29 30 30 30 30 31 31 32 32
25 23 21 22 25 27 28 28 28 28 27 27 27 26 26 26 26 26 26 26 25 23 22 21 19 17 15 14 12 12 11 11 11 11 11 11 11 11 11 12 12 11 11 10 11 11 10 10 9 9 9 8 8 9 10 11 13 14 13 13 14 15 15 16 18 19 21 21 22 23 24 25 26 27 28 28 29 29 29 30 30 30 31 31 31
22 21 20 21 24 26 27 27 28 28 27 26 26 26 26 26 26 25 25 25 25 24 22 21 19 17 16 16 15 13 12 12 12 12 12 13 12 12 12 13 13 12 12 12 12 11 11 11 10 9 9 8 7 8 9 10 11 12 11 11 11 13 14 14 16 17 19 20 21 22 23 24 25 26 28 28 28 28 28 29 29 29 30 30 30
21 20 21 24 26 26 26 26 27 26 26 25 25 25 25 26 26 25 24 24 24 22 20 19 18 18 17 17 16 14 13 13 13 13 14 14 14 13 13 14 13 13 13 14 13 12 11 11 10 9 8 7 7 7 7 8 9 10 10 9 10 12 13 14 15 16 18 19 20 21 22 23 24 25 26 27 28 28 28 27 28 28 27 28 29
23 21 21 22 25 26 24 24 26 26 25 24 24 24 25 26 25 24 24 25 23 21 20 19 18 18 18 17 15 14 13 14 14 15 15 15 15 14 14 14 14 14 14 14 13 12 11 11 10 8 6 5 6 6 5 6 8 9 9 9 10 12 13 14 16 17 18 19 20 21 22 23 23 24 25 26 27 27 27 27 27 27 27 27 27
23 22 19 19 23 26 25 23 25 26 25 24 24 24 25 26 25 24 24 25 23 21 20 19 19 18 17 15 14 14 14 15 16 16 16 15 15 14 14 14 15 15 14 13 12 12 11 10 9 8 6 5 5 5 5 5 7 8 9 11 12 13 14 16 17 19 20 21 22 22 23 24 24 24 25 25 25 26 27 27 27 27 27 27 27
22 21 19 19 21 23 23 22 24 26 26 25 24 24 25 26 25 25 25 25 23 21 20 19 18 16 15 14 14 15 16 16 16 15 14 14 13 13 13 14 14 13 12 11 11 11 10 9 8 8 7 6 6 6 6 6 7 9 10 12 13 15 16 17 19 20 21 23 24 24 24 25 25 25 25 25 25 25 26 26 27 27 27 27 27
22 21 21 21 21 20 20 20 22 24 25 25 24 24 25 26 25 26 26 25 23 21 19 18 17 15 14 14 15 16 16 16 14 13 12 12 11 11 11 11 11 10 10 9 10 10 10 10 9 9 8 7 7 7 7 9 10 11 13 14 16 18 19 20 21 22 23 24 25 26 26 26 27 27 26 26 25 25 25 26 26 26 27 27 27
22 20 21 21 21 21 20 20 20 21 22 23 24 24 25 25 25 26 25 23 21 19 17 17 16 14 14 15 15 15 15 13 11 10 10 9 8 8 8 8 7 8 8 9 10 11 13 13 12 10 9 8 8 8 9 11 12 14 15 17 19 20 22 22 23 24 24 25 26 26 26 26 27 27 26 25 24 24 24 25 25 26 26 26 27
21 20 20 20 20 20 20 18 17 17 19 21 23 23 24 24 24 24 23 20 18 16 16 16 16 15 15 15 15 14 13 11 10 10 10 9 8 8 7 7 7 8 8 10 11 13 14 14 13 11 10 9 9 9 11 12 14 15 17 19 20 21 22 23 23 23 23 23 24 24 25 26 26 26 26 25 24 23 23 24 24 25 25 25 26
19 19 19 19 19 18 17 17 16 17 19 21 22 22 22 23 23 22 20 18 16 16 17 17 16 15 15 15 15 14 13 12 12 12 11 10 10 10 9 9 9 9 10 11 12 12 13 13 12 11 10 9 9 11 12 14 16 18 19 21 22 22 22 22 22 22 22 21 22 24 25 26 27 27 28 27 27 27 26 26 25 25 25 25 25
18 17 18 19 19 17 15 15 15 16 19 20 21 21 22 21 20 19 18 17 16 17 18 17 15 15 16 16 15 14 12 11 11 11 11 11 12 12 12 11 11 11 11 11 11 10 11 11 10 10 10 10 10 12 14 16 18 20 22 23 24 23 22 21 21 21 21 21 22 22 23 24 25 26 26 27 28 28 29 29 29 29 28 28 27
17 18 19 19 17 15 14 14 14 15 17 19 19 20 20 20 19 17 17 17 17 17 16 15 15 15 15 15 15 14 13 13 13 12 12 12 12 12 13 13 12 12 12 11 10 10 11 10 10 11 11 11 12 14 16 18 20 22 24 24 24 23 21 21 21 21 22 23 23 23 23 23 24 25 25 26 27 27 28 29 30 30 30 30 30
18 20 20 19 17 16 15 15 15 16 17 18 18 19 19 18 17 16 16 17 17 16 15 15 14 14 14 14 14 14 14 14 14 13 12 12 12 12 13 13 13 12 12 12 12 12 13 13 14 14 14 14 15 17 19 20 22 23 24 23 22 21 22 22 23 23 24 25 26 26 26 26 27 27 27 27 27 28 29 29 29 30 31 31 31
19 20 20 19 17 16 15 16 16 17 18 18 17 17 17 16 16 16 17 17 17 17 17 16 15 15 14 14 14 14 13 13 13 12 11 11 11 10 11 11 12 12 13 13 14 15 16 17 17 17 17 18 19 19 20 21 22 22 22 21 20 21 23 25 25 26 27 28 28 29 29 30 30 30 30 30 30 30 31 31 31 31 31 31 32
20 20 19 17 14 13 14 15 16 17 16 15 14 14 15 15 15 16 17 17 17 17 17 16 16 15 15 15 15 14 13 13 13 12 11 11 10 10 10 11 12 13 14 14 15 16 17 18 18 19 19 20 20 20 21 22 23 22 22 21 21 23 25 27 28 29 30 31 32 32 32 33 33 33 33 33 33 33 34 34 34 34 34 33 34
19 19 17 15 14 13 13 13 15 15 14 13 13 13 13 14 15 15 15 16 16 16 15 14 14 14 13 13 12 13 13 13 13 13 13 13 12 12 12 12 13 14 14 14 15 16 18 19 20 20 21 22 22 23 23 24 24 24 23 22 23 24 27 28 30 32 33 34 35 36 36 36 36 36 36 36 36 36 37 37 37 37 37 36 36
21 20 18 17 15 14 13 14 15 16 14 13 14 14 14 14 15 15 15 15 15 15 14 13 13 13 12 12 12 13 13 14 14 15 15 14 14 13 13 13 14 14 15 16 17 18 19 20 21 22 23 24 24 25 25 26 26 26 25 25 26 27 29 31 33 34 36 37 38 38 39 39 38 38 37 37 37 37 37 37 38 38 38 38 39
20 19 17 15 13 13 13 14 16 17 14 12 13 13 13 13 13 14 15 16 15 14 13 13 13 12 12 12 12 12 13 13 13 14 13 13 13 13 14 14 15 16 17 18 19 19 20 21 21 22 23 24 25 25 26 27 28 29 29 29 30 31 33 34 35 36 37 38 39 39 39 39 39 38 38 37 37 37 38 38 40 41 42 42 43
Wind_Direction
220 216 212 204 199 198 200 203 202 205 213 225 236 242 256 275 289 303 289 230 203 193 190 187 192 199 202 205 162 89 85 94 93 92 90 88 87 85 83 80 73 71 71 68 66 61 58 58 57 54 51 48 46 43 40 36 33 31 27 25 23 16 13 11 2 1 9 9 4 5 6 5 5 4 1 1 0 359 359 358 356 356 356 355 353
216 214 213 208 204 202 203 204 205 214 226 233 237 240 256 273 284 293 266 221 199 190 192 191 191 194 194 182 130 101 104 104 100 100 99 96 95 92 88 81 75 74 73 69 66 62 59 58 57 54 50 46 44 41 37 34 30 28 26 22 20 17 11 8 4 359 2 6 6 5 6 5 4 4 1 359 359 358 358 357 356 356 356 356 354
217 215 213 208 205 205 207 210 217 226 229 229 231 239 257 268 276 277 246 216 200 190 189 190 189 188 181 155 119 112 116 113 111 111 107 101 97 95 91 84 78 76 73 70 67 64 60 58 56 53 49 44 42 39 34 32 28 25 24 21 17 16 12 7 4 360 358 2 5 4 4 5 4 3 1 359 359 358 358 358 359 359 359 358 355
219 216 214 208 207 210 214 218 222 223 223 226 233 246 257 261 262 250 224 209 199 189 184 185 184 180 169 145 125 125 125 123 122 119 112 106 100 97 93 88 82 78 74 71 69 64 61 58 55 51 48 43 40 37 32 28 26 23 20 19 17 14 12 8 5 2 359 359 2 4 4 3 4 4 1 359 360 360 358 359 1 2 2 0 357
218 215 214 209 210 214 215 216 216 218 224 233 241 249 253 250 242 226 212 204 196 186 182 182 179 173 164 148 137 134 131 130 128 123 117 112 105 100 97 91 84 80 76 72 69 64 59 56 53 49 45 42 38 35 31 26 23 22 18 17 16 14 12 9 6 4 2 360 1 4 4 3 3 4 2 360 359 359 357 356 359 2 2 1 358
214 214 212 208 208 210 211 214 219 226 233 238 242 245 244 237 224 211 203 198 191 184 182 180 176 174 167 153 147 142 138 135 131 126 121 117 111 105 98 92 85 80 77 72 67 63 58 53 50 46 41 39 36 32 29 25 21 19 18 17 15 13 12 9 7 5 4 2 1 2 4 4 3 3 3 1 360 358 355 353 357 1 1 0 359
214 210 206 206 208 211 218 224 229 235 238 238 239 236 230 221 211 203 196 190 187 184 182 180 176 176 171 159 153 147 142 139 135 130 126 120 115 106 97 91 85 80 76 71 66 61 57 51 47 44 40 35 32 29 27 24 21 18 17 16 14 13 11 9 7 5 4 4 3 3 4 4 3 2 2 2 2 1 357 353 354 358 359 359 360
215 208 207 210 215 221 226 229 233 237 237 234 230 224 218 210 203 198 191 183 182 183 184 182 178 175 171 161 154 149 146 143 139 135 131 124 116 105 97 90 85 80 75 71 67 62 57 52 47 43 40 34 29 26 24 23 21 18 16 16 14 13 11 9 6 6 5 5 4 3 3 4 3 2 2 4 3 1 359 355 351 351 353 357 1
213 210 214 217 222 226 228 229 230 230 228 223 218 214 210 204 198 193 186 178 179 181 182 184 183 177 168 159 153 150 148 146 141 136 131 122 113 105 98 91 84 80 77 73 70 65 60 55 51 46 41 37 31 27 24 22 20 18 16 15 14 13 12 10 7 6 6 6 5 3 3 4 4 3 3 4 1 358 358 357 352 350 350 353 0
212 213 217 219 225 227 227 226 223 219 217 215 213 209 204 199 192 187 181 176 179 181 180 181 184 178 169 160 155 153 151 148 143 137 130 121 112 105 97 91 86 82 79 76 73 69 64 59 56 52 46 41 36 31 28 25 22 20 18 16 14 12 11 11 10 7 6 7 7 5 3 4 5 3 1 1 1 359 359 358 354 351 351 352 356
213 215 217 222 225 223 221 218 213 212 212 209 208 205 199 193 187 181 178 176 179 182 181 181 180 177 172 165 160 157 154 148 144 140 133 124 114 105 97 92 89 86 82 79 74 70 67 62 58 55 50 45 40 35 31 28 26 25 23 20 17 14 12 12 11 9 7 8 9 7 5 4 4 3 1 359 -0 0 0 0 356 351 352 352 351
215 217 218 219 219 217 215 211 208 210 208 205 204 201 194 188 184 180 180 179 180 182 182 182 180 176 174 170 164 162 157 150 146 144 137 127 117 108 100 95 91 88 83 78 75 70 66 63 58 54 50 46 43 38 34 30 28 28 26 25 24 22 19 16 12 9 9 9 10 10 8 5 4 3 1 359 359 1 2 2 0 355 354 354 349
215 216 214 214 215 213 210 209 208 207 204 201 200 195 189 188 185 183 182 181 182 183 182 183 181 178 177 174 169 166 161 155 151 148 141 130 121 112 105 99 92 88 83 78 74 71 67 62 58 54 50 46 43 40 35 31 29 27 26 25 26 26 25 24 18 13 10 10 11 13 12 8 6 4 3 0 359 1 2 3 4 0 358 359 358
214 213 210 210 211 209 208 208 206 204 201 199 196 191 188 187 187 187 185 184 185 185 183 183 182 181 179 177 174 171 166 162 157 151 143 134 125 116 106 99 92 86 81 77 74 71 67 63 57 52 49 45 42 40 36 32 28 25 24 24 25 25 24 25 23 19 15 13 13 14 14 12 9 5 4 3 2 3 3 4 5 4 3 4 5
214 209 206 206 207 207 207 206 202 200 198 195 193 191 187 187 188 188 188 189 189 187 186 185 183 182 182 181 181 178 172 167 160 150 143 136 128 120 108 100 93 86 80 76 73 69 65 61 56 50 46 42 40 37 35 32 28 24 24 24 24 24 23 23 23 21 19 16 14 15 15 14 12 9 7 6 6 6 6 7 8 7 7 8 9
211 205 204 205 205 206 206 203 199 197 195 193 192 190 187 186 189 191 190 190 189 188 188 186 185 184 183 183 184 181 177 171 159 149 143 136 128 121 112 102 93 86 81 76 71 68 63 60 55 49 44 40 37 35 33 31 29 26 27 27 26 25 25 24 22 22 21 19 15 14 15 15 14 13 12 9 9 8 7 9 10 10 9 8 9
209 204 204 203 202 204 204 201 198 195 194 193 190 190 190 189 191 194 194 192 190 190 189 186 186 184 181 181 183 183 179 171 158 149 144 138 132 128 118 105 94 87 83 76 70 66 62 57 52 46 42 39 36 35 33 31 29 28 28 28 26 26 27 27 24 23 22 21 18 15 15 17 16 16 17 16 12 11 10 10 11 11 11 8 7
207 203 200 198 203 207 205 202 199 197 197 196 190 187 189 192 195 197 197 196 193 191 189 186 183 181 180 180 182 184 180 169 158 151 147 143 140 137 124 106 97 89 81 73 67 62 56 51 47 42 38 37 36 34 32 30 29 29 28 27 25 24 25 25 24 23 22 21 20 18 16 18 19 18 20 21 19 16 14 13 11 12 12 9 6
209 203 200 204 213 211 204 201 199 196 197 197 193 188 185 189 197 198 198 199 195 192 190 187 181 179 181 183 183 183 178 167 158 153 150 150 150 144 130 115 104 90 78 68 60 56 49 42 39 37 35 35 34 32 31 29 27 27 26 25 25 24 22 19 18 19 19 18 18 18 18 19 20 20 21 23 24 23 21 17 15 14 14 13 13
208 202 202 209 211 206 202 200 198 195 195 193 191 187 184 189 199 202 199 198 197 193 190 188 184 181 183 185 181 179 178 169 161 157 156 159 158 152 145 138 119 93 78 66 53 46 38 32 33 34 32 33 32 30 29 27 26 25 24 23 24 23 21 19 16 15 16 16 16 17 19 19 19 20 21 22 24 27 27 24 21 19 17 16 17
201 198 202 206 205 202 202 201 200 197 194 189 185 183 182 188 205 211 203 197 197 195 190 188 188 185 183 183 179 177 176 172 168 165 166 167 166 164 167 170 139 99 78 60 43 36 26 23 27 30 31 31 30 28 26 23 23 23 22 23 23 21 19 18 17 16 16 16 16 17 19 19 19 20 21 22 23 25 28 30 29 27 24 20 18
200 199 202 204 203 201 202 202 200 197 194 191 189 186 180 179 197 212 207 197 196 195 190 188 189 187 184 183 182 180 176 175 175 175 175 174 174 176 185 191 163 111 83 48 28 22 14 16 22 25 28 28 26 26 22 20 20 20 21 22 22 20 19 18 17 17 17 17 17 17 18 18 18 18 19 20 22 24 27 31 34 34 32 28 23
201 201 202 203 202 201 200 201 199 197 196 195 193 190 182 179 191 206 205 198 196 194 190 189 189 190 189 185 184 184 182 180 180 180 181 182 183 188 197 199 179 140 128 307 0 3 2 13 18 18 22 24 22 21 18 15 16 17 18 20 19 19 19 17 16 17 17 17 18 18 18 17 16 16 17 18 20 22 24 28 33 36 36 34 31
200 201 203 203 200 198 199 200 199 198 200 198 193 192 188 185 192 202 202 198 197 194 191 191 191 192 192 189 186 186 186 187 186 184 186 190 192 198 204 202 189 180 204 247 306 337 349 6 11 9 15 19 16 14 12 10 11 13 14 14 14 14 14 14 14 15 15 16 17 18 18 17 15 15 15 16 18 20 22 23 27 33 37 38 37
200 202 203 201 199 198 199 201 201 201 202 201 196 193 193 190 194 199 199 198 198 196 193 192 193 194 193 191 189 188 188 191 193 191 192 195 197 202 205 200 196 202 215 239 275 309 336 356 0 359 6 11 10 8 6 3 3 7 9 8 8 8 9 10 12 12 12 15 16 16 17 17 16 15 15 15 16 18 19 21 22 25 30 35 39
201 203 202 200 198 199 200 201 202 202 204 204 200 198 197 195 196 199 199 198 199 198 196 194 193 194 195 194 194 195 194 195 197 197 199 200 201 204 205 200 201 212 222 236 262 290 320 340 347 351 355 358 360 360 360 359 358 359 2 3 3 4 5 6 8 9 10 12 13 13 14 15 15 15 15 16 17 17 18 19 20 20 23 28 33
204 203 201 199 199 200 202 202 200 200 203 202 198 199 203 202 201 201 200 199 199 199 200 199 196 195 196 196 197 198 199 200 201 201 202 204 204 206 205 202 205 216 224 231 249 274 300 321 334 343 346 346 347 350 352 353 353 353 355 358 0 2 3 3 4 4 6 7 8 9 10 10 11 13 15 16 17 18 18 19 19 19 20 22 26
209 206 202 201 201 202 203 203 200 200 201 198 195 198 203 204 205 206 205 203 201 200 200 201 200 198 197 198 199 200 202 203 203 202 203 205 207 208 206 204 210 220 226 231 246 263 279 301 317 329 335 336 338 341 343 344 345 348 352 356 358 359 359 359 358 358 359 1 2 3 4 5 7 9 13 15 17 18 18 18 20 20 19 20 23
209 207 204 203 204 204 204 203 201 200 199 196 194 200 205 207 209 210 210 208 206 206 205 203 201 200 200 200 200 200 202 204 203 203 204 205 207 208 206 208 216 224 229 236 246 255 265 284 303 313 320 323 325 329 333 337 341 346 350 352 353 354 354 354 354 355 355 356 357 358 360 2 3 5 8 11 14 16 16 17 18 19 20 21 22
207 207 206 205 206 205 203 202 200 199 198 195 195 200 205 209 212 214 212 208 205 205 206 205 205 204 202 201 199 198 201 203 204 205 206 206 208 209 206 210 220 226 231 238 245 252 263 277 292 301 305 309 313 319 326 334 339 344 346 348 349 350 351 351 352 354 354 354 354 356 358 360 1 3 4 6 9 11 13 15 16 17 18 19 20
208 206 207 207 208 207 203 200 198 199 198 197 198 200 202 203 207 209 208 204 201 199 196 196 200 202 202 202 201 200 203 206 207 207 208 209 211 211 210 214 222 228 234 242 250 259 268 275 281 288 295 304 310 317 324 330 335 340 343 345 347 349 350 351 353 354 355 355 355 355 357 359 0 2 3 3 5 6 8 11 13 15 17 17 18
212 208 207 208 209 207 204 200 198 199 200 200 202 204 202 200 200 198 197 199 200 199 197 195 194 192 192 195 199 201 204 208 210 211 212 214 215 216 217 221 226 233 240 247 254 262 270 276 281 285 291 300 309 316 323 329 333 338 342 347 350 352 354 356 357 357 357 358 358 358 358 359 -0 2 2 2 3 3 4 7 9 12 14 15 15
215 212 209 209 208 206 204 203 200 200 202 204 205 206 204 202 198 194 193 196 199 200 200 199 195 189 189 193 198 202 207 211 213 214 216 219 220 221 223 227 232 238 243 249 256 262 270 279 286 289 292 298 308 318 326 331 335 340 346 351 357 1 3 3 3 1 359 360 1 1 1 0 0 1 2 2 2 3 3 4 6 7 9 12 13
215 214 214 214 212 209 207 206 204 204 207 209 209 209 207 205 203 199 196 197 199 200 200 199 195 193 196 200 205 210 216 220 221 220 220 222 224 227 229 232 237 241 246 252 259 266 274 282 289 295 299 302 310 321 329 336 340 345 352 359 4 8 10 9 7 5 2 1 2 2 2 1 1 1 1 1 2 2 3 3 4 5 5 7 9
214 215 215 215 215 214 212 209 208 209 211 213 213 212 209 207 205 203 202 201 201 201 200 199 199 202 205 208 212 216 220 224 226 224 223 224 227 230 233 236 240 245 249 254 261 267 275 282 290 298 302 304 311 320 330 342 350 354 360 5 8 9 9 7 5 4 2 0 359 359 359 359 359 359 360 359 359 1 2 3 4 4 4 4 5
213 219 218 213 213 215 214 212 213 215 216 217 217 215 212 209 206 205 205 205 204 204 204 205 207 211 214 216 219 221 223 226 227 225 225 226 228 231 236 240 244 247 251 256 262 267 274 281 289 296 300 301 308 318 331 349 2 3 1 0 0 0 359 358 356 356 356 356 354 353 353 353 354 356 358 358 358 358 359 -0 1 2 3 3 2
215 221 219 213 213 214 212 213 217 220 221 221 220 217 213 211 209 208 206 205 204 207 211 213 215 218 221 224 226 228 228 229 226 225 226 228 230 233 237 243 247 250 253 258 263 267 273 280 284 288 294 298 302 312 329 350 358 357 352 348 344 342 343 344 344 345 346 347 347 347 347 346 347 349 353 356 358 358 357 357 358 359 0 1 0
216 218 217 214 213 211 208 211 217 221 223 223 222 220 216 213 212 212 209 206 206 211 216 219 223 226 229 232 235 237 235 231 228 227 228 230 233 237 241 246 250 253 255 259 261 264 272 279 278 277 282 289 292 297 313 331 339 340 339 337 334 333 334 336 337 339 339 340 340 341 343 343 342 343 345 348 352 355 356 356 355 356 357 358 358
212 212 212 211 211 209 208 211 216 220 223 224 223 221 218 215 215 214 210 207 211 217 220 224 229 232 236 240 243 241 237 233 231 231 232 234 238 242 245 248 250 252 255 256 256 259 268 274 271 268 271 277 279 283 294 308 316 321 323 324 325 327 328 329 331 333 334 335 335 335 336 338 338 339 339 341 343 346 349 352 352 352 353 355 356
208 206 204 204 207 210 212 215 219 223 227 227 226 223 219 217 216 213 210 211 216 221 224 230 236 240 242 245 246 244 240 239 238 236 235 235 236 238 241 245 247 249 252 254 255 258 266 271 270 268 266 266 269 275 284 295 302 308 312 315 316 318 320 322 323 325 327 328 329 330 330 331 332 333 334 334 335 337 339 342 345 346 347 349 350
209 204 200 201 204 207 211 214 217 223 229 233 231 225 220 217 215 213 214 217 221 225 231 238 244 247 246 245 243 241 239 238 234 226 221 219 220 225 233 238 243 249 254 259 262 263 265 267 269 267 260 255 260 271 282 293 301 306 311 315 317 319 321 323 323 324 325 326 326 326 326 327 329 329 330 330 330 330 331 332 335 337 339 341 343
208 206 204 203 202 201 202 203 205 212 223 230 230 226 221 218 215 214 217 223 227 232 240 246 247 244 239 233 230 228 226 220 211 204 203 206 214 223 232 242 253 261 264 268 270 269 266 263 261 257 250 248 258 274 287 296 303 308 313 316 319 321 322 324 325 326 327 325 322 318 317 317 319 320 322 323 323 323 323 324 326 328 329 331 333
210 211 211 206 198 192 190 190 194 204 212 218 221 221 220 218 216 217 223 228 233 241 249 249 242 232 222 216 216 218 217 211 207 207 211 221 230 238 245 252 260 267 271 274 276 274 269 262 254 247 245 251 267 282 293 301 306 310 313 315 317 318 319 319 321 323 322 318 313 311 311 313 314 315 315 317 317 317 317 318 319 320 321 322 323
214 213 206 197 189 185 186 191 199 208 213 214 213 211 211 213 217 222 227 233 241 248 249 241 226 213 208 209 215 221 223 222 222 224 230 238 244 249 254 258 261 264 266 268 269 269 267 261 254 249 252 264 280 293 301 306 308 308 309 311 312 312 311 312 313 314 313 312 312 314 318 321 322 322 322 321 318 316 316 316 316 316 316 317 317
210 200 190 184 182 184 190 197 204 209 212 212 209 207 208 213 219 226 232 238 243 244 236 222 210 205 208 214 222 229 234 238 241 242 245 252 257 258 260 261 262 260 258 258 259 262 264 264 264 265 269 278 290 298 302 303 303 302 304 307 306 304 304 306 306 307 308 310 313 317 319 322 325 326 326 326 323 321 320 320 319 317 316 315 315
196 187 182 180 181 184 189 194 198 201 201 202 204 209 214 219 225 230 232 231 229 223 215 208 205 209 215 220 227 234 239 243 245 248 254 263 268 269 267 265 261 255 252 255 261 265 270 273 274 275 278 283 288 293 295 296 296 299 302 303 299 298 301 305 306 306 307 308 309 312 314 316 318 319 320 321 321 319 319 319 319 317 316 315 314
183 181 181 180 181 186 192 193 193 194 195 198 206 215 223 230 234 231 222 213 208 208 209 211 214 218 221 224 228 234 239 244 248 254 260 265 270 270 265 259 252 249 252 260 266 269 271 272 272 273 277 281 285 289 291 292 295 297 299 296 293 295 300 304 305 306 306 306 306 307 308 309 310 311 312 312 312 312 311 312 312 312 312 312 312
183 183 183 183 184 189 194 194 195 198 203 208 216 224 230 233 230 220 209 205 207 212 218 223 227 228 228 229 232 238 245 250 254 256 256 258 261 263 259 255 254 256 260 265 266 266 266 267 268 272 276 280 284 287 289 292 294 295 293 290 290 293 297 299 301 303 304 304 305 304 304 304 305 305 305 304 304 303 304 305 305 306 306 306 307
181 175 171 170 171 173 179 185 192 200 209 213 212 212 214 215 214 212 213 216 219 221 225 229 230 231 234 239 242 245 249 252 254 256 257 259 263 264 263 262 262 261 262 264 265 267 268 269 271 273 275 278 282 286 288 290 292 292 290 288 289 291 293 295 298 300 301 302 302 302 302 302 302 303 302 302 300 299 299 300 300 301 301 301 304
168 166 166 169 176 184 193 198 199 202 207 209 207 206 210 215 219 223 226 225 224 226 230 232 232 237 244 248 248 248 251 255 259 262 265 268 268 266 265 265 264 263 267 271 273 273 274 273 274 276 279 282 284 286 287 288 290 290 288 287 287 289 292 294 296 298 298 299 300 300 300 302 303 303 303 302 300 299 299 299 299 300 300 301 304
173 177 179 183 192 205 215 218 215 214 218 220 217 217 221 225 229 232 231 230 233 237 238 236 238 246 253 255 254 255 257 260 264 267 267 265 262 259 260 262 264 267 272 275 275 274 275 277 279 281 283 285 286 286 287 288 289 290 289 288 288 289 292 294 295 297 298 299 300 301 302 304 305 304 304 303 302 301 302 302 302 302 303 304 305